星链-31291 (STARLINK-31291 )

导读

STARLINK-31291是美国SpaceX公司星链星座中的一颗卫星,于2024年2月29日发射升空,归属星链互联网卫星星座组网范畴。星链项目旨在构建全球卫星互联网,该卫星发射后将进一步扩充星链星座规模,提升星座在全球范围的网络覆盖能力与服务稳定性,助力实现空天地一体化的全球网络连接。

基本信息
目录编号:
59096
目录名称:
STARLINK-31291
国际标识:
2024-041Y
轨道中心:
EARTH
卫星名称:
星链-31291
卫星全名:
星链-31291 (STARLINK-31291 )
卫星状态:
在轨 (已飞行918 天)
发射日期:
2024-02-29 UTC
国别 :
美国 (US)
星等 :
--
轨道信息
数据来源 国际轨道数据 AOE轨道数据
星历时间 2026-09-04T01:54:43+0800
15小时前
查看轨道信息
2026-08-29T09:00:00+0800
6天前
查看轨道信息
半长轴 6861.184km 6861.156km
偏心率 0.0001331 0.0001665
轨道倾角 43.003° 43.004°
近地点辐角 275.364° 275.312°
升交点赤经 25.071° 57.288°
平近点角 84.706° 356.418°
近地点 482.133km 481.876km
远地点 483.961km 484.162km
周期 94.267分钟 94.266分钟
每日圈数 15.27581 15.275903
详细信息
固有亮度:
5
最大亮度:
0.3
卫星平台:
Starlink v2.0 mini
覆盖范围:
全球
运营商:
太空探索技术公司
运营商所在国:
美国
制造商(研发单位):
太空探索技术公司
制造商所在国:
美国
使用方式:
暂无
卫星简介
星链(Starlink)计划是由太空探索技术公司(SpaceX)提出的一个巨型低轨卫星互联网星座项目,计划在2019年至2024年间在太空搭建由约1.2万颗卫星组成的“星链”网络,其中1584颗将部署在地球上空550千米处的近地轨道,并从2020年开始工作。该卫星仍在工作。
2D轨道图
3D轨道图
轨道高度分析图
轨道倾角分析图
轨道综合分析图
查看轨道综合分析图
交会数据列表
事件ID 空间交会对象 最接近时刻(TCA) 交会距离 交会风险概率(CRP) 交会风险指数(CRI) 操作
CDM_260906-175205-909606-800221
2026-09-06T
17:52:54+0000
0.375 km
远距离
2.632368E-4 高风险 0.83
CDM_260905-063205-909606-728921
2026-09-05T
06:32:24+0000
1.429 km
极远距离
5.604142E-6 低风险 0.5
CDM_260906-161805-909606-800221
2026-09-06T
16:18:45+0000
2.092 km
极远距离
1.732903E-6 低风险 0.4
CDM_260829-184605-909606-383021
2026-08-29T
18:46:02+0000
2.793 km
极远距离
1.1539E-6 低风险 0.36
CDM_260905-102605-721705-909621
2026-09-05T
10:26:07+0000
2.839 km
极远距离
1.113309E-6 低风险 0.36